Location: Beuerbach
(48.1459°N, 10.9174°E)
Time: 03:09:08
(UTC+00:00)

FENGYUN 3A - Pass Details

Date: 23 May 2024
Orbit: 821 x 835 km, 98.6° (Epoch: 13 June)

Event Time Altitude Azimuth Distance (km) Brightness Sun altitude
Rises 02:14:32 0° 11° (N) 3,371 7.9 -10.1°
Reaches altitude 10° 02:16:55 10° 8° (N) 2,433 7.0 -9.9°
Maximum altitude 02:22:12 59° 290° (WNW) 949 3.9 -9.3°
Drops below altitude 10° 02:27:26 10° 212° (SSW) 2,414 5.4 -8.6°
Enters shadow 02:27:28 10° 212° (SSW) 2,427 5.5 -8.6°
